When you browse on this site, cookies collect data to enhance your experience and personalize the content and advertising you see.
Visit our Privacy Policy to learn more. By continuing to use the site, you agree to this use of cookies and data.
  • In Romania
  • List of Countries
  • For 7 days
  • Water Temperature
  • Weather Map
  • Weather Widgets
  • user-avatar
    Login

    Hourly Weather Florence

    Today, 5 April, Sunday

    Time Temperature Precipitation Wind Pressure Humidity
    00:00 +14°C° 0 mm 2 mps 758 mmHg 76%
    01:00 +14°C° 0 mm 2 mps 758 mmHg 85%
    02:00 +14°C° 0 mm 2 mps 758 mmHg 85%
    03:00 +13°C° 0 mm 2 mps 758 mmHg 85%
    04:00 +13°C° 0 mm 2 mps 757 mmHg 85%
    05:00 +14°C° 0 mm 2 mps 758 mmHg 85%
    06:00 +14°C° 0 mm 2 mps 759 mmHg 86%
    07:00 +14°C° 0 mm 2 mps 760 mmHg 87%
    08:00 +15°C° 0 mm 2 mps 760 mmHg 85%
    09:00 +16°C° 0 mm 2 mps 760 mmHg 82%
    10:00 +17°C° 0 mm 2 mps 760 mmHg 80%
    11:00 +18°C° 0 mm 2 mps 760 mmHg 75%
    12:00 +20°C° 0 mm 2 mps 760 mmHg 69%
    13:00 +21°C° 0 mm 2 mps 760 mmHg 64%
    14:00 +21°C° 0.1 mm 2 mps 759 mmHg 63%
    15:00 +23°C° 0.1 mm 2 mps 759 mmHg 63%
    16:00 +23°C° 0.1 mm 2 mps 758 mmHg 62%
    17:00 +20°C° 0.1 mm 2 mps 759 mmHg 68%
    18:00 +19°C° 0.1 mm 3 mps 759 mmHg 73%
    19:00 +17°C° 0.1 mm 3 mps 759 mmHg 79%
    20:00 +17°C° 0 mm 3 mps 759 mmHg 81%
    21:00 +16°C° 0 mm 3 mps 760 mmHg 83%
    22:00 +14°C° 0 mm 3 mps 760 mmHg 85%
    23:00 +14°C° 0 mm 3 mps 760 mmHg 86%

    Tomorrow, 6 April, Monday

    Time Temperature Precipitation Wind Pressure Humidity
    00:00 +15°C° 0 mm 2 mps 760 mmHg 88%
    01:00 +14°C° 0 mm 2 mps 759 mmHg 90%
    02:00 +14°C° 0 mm 2 mps 759 mmHg 91%
    03:00 +14°C° 0 mm 2 mps 759 mmHg 93%
    04:00 +14°C° 0 mm 2 mps 759 mmHg 94%
    05:00 +15°C° 0.1 mm 2 mps 759 mmHg 93%
    06:00 +15°C° 0.1 mm 2 mps 759 mmHg 92%
    07:00 +16°C° 0.1 mm 2 mps 759 mmHg 91%
    08:00 +18°C° 0.2 mm 2 mps 760 mmHg 83%
    09:00 +20°C° 0.2 mm 3 mps 760 mmHg 76%
    10:00 +22°C° 0.2 mm 3 mps 760 mmHg 68%
    11:00 +24°C° 0.1 mm 3 mps 760 mmHg 62%
    12:00 +26°C° 0.1 mm 3 mps 759 mmHg 57%
    13:00 +27°C° 0.1 mm 3 mps 759 mmHg 51%
    14:00 +27°C° 0.1 mm 3 mps 758 mmHg 52%
    15:00 +27°C° 0.1 mm 3 mps 758 mmHg 53%
    16:00 +26°C° 0.1 mm 3 mps 758 mmHg 54%
    17:00 +25°C° 0.2 mm 2 mps 758 mmHg 60%
    18:00 +23°C° 0.2 mm 2 mps 758 mmHg 66%
    19:00 +21°C° 0.2 mm 2 mps 758 mmHg 72%
    20:00 +20°C° 0.2 mm 2 mps 758 mmHg 78%
    21:00 +19°C° 0.2 mm 2 mps 759 mmHg 83%
    22:00 +18°C° 0.2 mm 3 mps 759 mmHg 88%
    23:00 +18°C° 0 mm 3 mps 759 mmHg 89%

    Day after tomorrow, 7 April, Tuesday

    Time Temperature Precipitation Wind Pressure Humidity
    00:00 +17°C° 0 mm 3 mps 758 mmHg 91%
    01:00 +17°C° 0 mm 3 mps 758 mmHg 93%
    02:00 +17°C° 0 mm 3 mps 758 mmHg 93%
    03:00 +17°C° 0 mm 3 mps 758 mmHg 93%
    04:00 +16°C° 0 mm 3 mps 757 mmHg 94%
    05:00 +17°C° 0 mm 3 mps 758 mmHg 93%
    06:00 +17°C° 0 mm 3 mps 758 mmHg 92%
    07:00 +17°C° 0 mm 3 mps 758 mmHg 91%
    08:00 +19°C° 0 mm 3 mps 758 mmHg 83%
    09:00 +21°C° 0 mm 3 mps 758 mmHg 76%
    10:00 +24°C° 0 mm 3 mps 758 mmHg 68%
    11:00 +25°C° 0 mm 4 mps 757 mmHg 61%
    12:00 +27°C° 0 mm 4 mps 757 mmHg 53%
    13:00 +29°C° 0 mm 4 mps 756 mmHg 46%
    14:00 +28°C° 0.1 mm 5 mps 756 mmHg 51%
    15:00 +27°C° 0.1 mm 6 mps 755 mmHg 56%
    16:00 +26°C° 0.1 mm 7 mps 755 mmHg 62%
    17:00 +23°C° 0.3 mm 6 mps 755 mmHg 69%
    18:00 +21°C° 0.3 mm 5 mps 755 mmHg 76%
    19:00 +19°C° 0.3 mm 4 mps 755 mmHg 83%
    20:00 +19°C° 0 mm 4 mps 755 mmHg 85%
    21:00 +18°C° 0 mm 3 mps 755 mmHg 86%
    22:00 +18°C° 0 mm 3 mps 755 mmHg 88%
    23:00 +18°C° 0 mm 3 mps 754 mmHg 90%

    8 April, Wednesday

    Time Temperature Precipitation Wind Pressure Humidity
    00:00 +17°C° 0 mm 3 mps 754 mmHg 92%
    01:00 +17°C° 0 mm 4 mps 753 mmHg 94%
    02:00 +17°C° 0 mm 3 mps 753 mmHg 95%
    03:00 +17°C° 0 mm 3 mps 752 mmHg 95%
    04:00 +17°C° 0 mm 3 mps 752 mmHg 96%
    05:00 +17°C° 0 mm 3 mps 752 mmHg 95%
    06:00 +18°C° 0 mm 4 mps 752 mmHg 94%
    07:00 +18°C° 0 mm 4 mps 752 mmHg 93%
    08:00 +20°C° 0 mm 4 mps 752 mmHg 84%
    09:00 +22°C° 0 mm 4 mps 752 mmHg 76%
    10:00 +25°C° 0 mm 4 mps 752 mmHg 68%
    11:00 +27°C° 0 mm 4 mps 751 mmHg 62%
    12:00 +29°C° 0 mm 4 mps 751 mmHg 56%
    13:00 +30°C° 0 mm 5 mps 750 mmHg 50%
    14:00 +32°C° 0 mm 5 mps 750 mmHg 47%
    15:00 +32°C° 0 mm 5 mps 749 mmHg 45%
    16:00 +33°C° 0 mm 5 mps 749 mmHg 42%
    17:00 +30°C° 0 mm 4 mps 749 mmHg 49%
    18:00 +28°C° 0 mm 4 mps 749 mmHg 56%
    19:00 +26°C° 0 mm 4 mps 749 mmHg 63%
    20:00 +25°C° 0.3 mm 3 mps 749 mmHg 68%
    21:00 +24°C° 0.3 mm 2 mps 750 mmHg 74%
    22:00 +22°C° 0.3 mm 1 mps 750 mmHg 79%
    23:00 +22°C° 0 mm 1 mps 750 mmHg 81%

    9 April, Thursday

    Time Temperature Precipitation Wind Pressure Humidity
    00:00 +20°C° 0 mm 2 mps 750 mmHg 83%
    01:00 +20°C° 0 mm 2 mps 749 mmHg 85%
    02:00 +19°C° 0 mm 2 mps 749 mmHg 84%
    03:00 +19°C° 0 mm 2 mps 749 mmHg 84%
    04:00 +18°C° 0 mm 2 mps 749 mmHg 84%
    05:00 +19°C° 0 mm 2 mps 749 mmHg 85%
    06:00 +19°C° 0 mm 3 mps 749 mmHg 86%
    07:00 +19°C° 0 mm 3 mps 749 mmHg 88%
    08:00 +22°C° 0 mm 4 mps 749 mmHg 78%
    09:00 +25°C° 0 mm 5 mps 749 mmHg 69%
    10:00 +28°C° 0 mm 5 mps 748 mmHg 59%
    11:00 +29°C° 0 mm 6 mps 748 mmHg 53%
    12:00 +32°C° 0 mm 6 mps 748 mmHg 47%
    13:00 +33°C° 0 mm 7 mps 747 mmHg 41%
    14:00 +32°C° 0 mm 6 mps 747 mmHg 43%
    15:00 +32°C° 0 mm 6 mps 747 mmHg 45%
    16:00 +30°C° 0 mm 5 mps 747 mmHg 47%
    17:00 +29°C° 0 mm 5 mps 747 mmHg 49%
    18:00 +27°C° 0 mm 4 mps 748 mmHg 51%
    19:00 +25°C° 0 mm 4 mps 748 mmHg 53%
    20:00 +23°C° 0 mm 4 mps 749 mmHg 49%
    21:00 +21°C° 0 mm 4 mps 750 mmHg 45%
    22:00 +20°C° 0 mm 4 mps 750 mmHg 40%
    23:00 +19°C° 0 mm 4 mps 751 mmHg 39%

    10 April, Friday

    Time Temperature Precipitation Wind Pressure Humidity
    00:00 +17°C° 0 mm 4 mps 751 mmHg 38%
    01:00 +15°C° 0 mm 4 mps 752 mmHg 37%
    02:00 +16°C° 0 mm 3 mps 752 mmHg 38%
    03:00 +14°C° 0 mm 3 mps 752 mmHg 38%
    04:00 +13°C° 0 mm 3 mps 753 mmHg 39%
    05:00 +13°C° 0 mm 3 mps 753 mmHg 41%
    06:00 +13°C° 0 mm 3 mps 753 mmHg 42%
    07:00 +13°C° 0 mm 3 mps 754 mmHg 44%
    08:00 +13°C° 0 mm 3 mps 754 mmHg 43%
    09:00 +15°C° 0 mm 2 mps 754 mmHg 43%
    10:00 +15°C° 0 mm 2 mps 755 mmHg 43%
    11:00 +15°C° 0 mm 2 mps 755 mmHg 43%
    12:00 +16°C° 0 mm 2 mps 754 mmHg 44%
    13:00 +16°C° 0 mm 1 mps 754 mmHg 45%
    14:00 +16°C° 0 mm 1 mps 754 mmHg 46%
    15:00 +16°C° 0 mm 2 mps 753 mmHg 48%
    16:00 +15°C° 0 mm 2 mps 753 mmHg 49%
    17:00 +15°C° 0 mm 1 mps 753 mmHg 53%
    18:00 +14°C° 0 mm 1 mps 753 mmHg 58%
    19:00 +13°C° 0 mm 1 mps 754 mmHg 62%
    20:00 +13°C° 0 mm 1 mps 754 mmHg 65%
    21:00 +12°C° 0 mm 1 mps 755 mmHg 68%
    22:00 +12°C° 0 mm 1 mps 756 mmHg 71%
    23:00 +11°C° 0 mm 1 mps 756 mmHg 70%
    Show more